FW1358 Weather Reports


Display with metric or nautical units.
time (UTC)temp
F
wind
direction
speed
MPH
gust
MPH
rain 1hr
in
rain 24hr
in
rain mn
in
humidity
%
barometer
mb
20260502162804 65 279 0.0 1.0 0.00 0.00 0.00 39 1017.5
20260502162304 65 279 0.0 1.0 0.00 0.00 0.00 38 1017.4
20260502161803 65 237 0.0 1.0 0.00 0.00 0.00 38 1017.4
20260502161303 65 236 0.0 0.0 0.00 0.00 0.00 41 1017.4
20260502160803 65 236 0.0 0.0 0.00 0.00 0.00 41 1017.5
20260502152305 62 291 0.0 1.0 0.00 0.00 0.00 44 1017.6
20260502151803 62 0 0.0 0.0 0.00 0.00 0.00 41 1017.5
20260502150803 61 0 0.0 0.0 0.00 0.00 0.00 43 1017.6
20260502122306 46 33 0.0 0.0 0.00 0.00 0.00 79 1017.1
20260502121304 46 33 0.0 0.0 0.00 0.00 0.00 78 1017.0
20260502120303 46 33 0.0 0.0 0.00 0.00 0.00 79 1016.9
20260502114803 46 33 0.0 0.0 0.00 0.00 0.00 77 1016.9
20260502114303 46 33 0.0 0.0 0.00 0.00 0.00 78 1016.8
20260502113803 46 33 0.0 0.0 0.00 0.00 0.00 78 1016.8
20260502113304 46 33 0.0 0.0 0.00 0.00 0.00 77 1016.7
20260502112803 46 33 0.0 0.0 0.00 0.00 0.00 78 1016.7
20260502111303 46 33 0.0 0.0 0.00 0.00 0.00 77 1016.4
20260502110804 46 33 0.0 0.0 0.00 0.00 0.00 76 1016.4
20260502110303 46 33 0.0 0.0 0.00 0.00 0.00 76 1016.3
20260502105306 47 33 0.0 0.0 0.00 0.00 0.00 75 1016.2
20260502104303 47 33 0.0 0.0 0.00 0.00 0.00 74 1016.3
20260502103303 47 33 0.0 0.0 0.00 0.00 0.00 74 1016.4
20260502101803 48 33 0.0 0.0 0.00 0.00 0.00 74 1016.5
20260502100304 48 33 0.0 0.0 0.00 0.00 0.00 73 1016.4
20260502090803 48 33 0.0 0.0 0.00 0.00 0.00 74 1015.9
20260502071303 50 33 0.0 0.0 0.00 0.00 0.00 67 1016.8
20260502070803 50 33 0.0 0.0 0.00 0.00 0.00 67 1016.9
20260502070304 50 33 0.0 0.0 0.00 0.00 0.00 66 1016.9
20260502065803 50 33 0.0 0.0 0.00 0.00 0.00 67 1016.9
20260502064303 50 33 0.0 0.0 0.00 0.00 0.00 66 1016.9
20260502063803 50 33 0.0 0.0 0.00 0.00 0.00 66 1016.8
20260502060303 51 33 0.0 0.0 0.00 0.00 0.00 63 1017.0
20260502055305 52 33 0.0 0.0 0.00 0.00 0.00 61 1017.1
20260502053804 52 33 0.0 0.0 0.00 0.00 0.00 60 1017.1
20260502053303 53 33 0.0 0.0 0.00 0.00 0.00 60 1017.0
20260502052306 53 33 0.0 0.0 0.00 0.00 0.00 60 1016.9
20260502051803 53 33 0.0 0.0 0.00 0.00 0.00 59 1016.8
20260502050813 53 33 0.0 0.0 0.00 0.00 0.00 57 1016.5
20260502050303 54 33 0.0 0.0 0.00 0.00 0.00 59 1016.5
20260502045803 54 33 0.0 0.0 0.00 0.00 0.00 58 1016.5
20260502044304 54 33 0.0 0.0 0.00 0.00 0.00 58 1016.6
20260502043803 54 33 0.0 0.0 0.00 0.00 0.00 58 1016.6
20260502043303 54 33 0.0 0.0 0.00 0.00 0.00 56 1016.6
20260502042803 54 33 0.0 0.0 0.00 0.00 0.00 57 1016.7
20260502042305 54 33 0.0 0.0 0.00 0.00 0.00 57 1016.7
20260502041303 54 33 0.0 0.0 0.00 0.00 0.00 57 1016.7
20260502040803 55 33 0.0 0.0 0.00 0.00 0.00 55 1016.8
20260502035804 55 33 0.0 0.0 0.00 0.00 0.00 56 1016.9
20260502035306 55 33 0.0 0.0 0.00 0.00 0.00 56 1016.8
20260502034303 55 33 0.0 0.0 0.00 0.00 0.00 54 1017.0
20260502033803 55 33 0.0 0.0 0.00 0.00 0.00 54 1017.0
20260502033304 55 33 0.0 0.0 0.00 0.00 0.00 54 1017.1
20260502031804 55 33 0.0 0.0 0.00 0.00 0.00 54 1017.4
20260502031303 56 33 0.0 0.0 0.00 0.00 0.00 54 1017.5
20260502030804 56 33 0.0 0.0 0.00 0.00 0.00 54 1017.5
20260502025306 56 33 0.0 0.0 0.00 0.00 0.00 53 1017.3
20260502022804 56 33 0.0 0.0 0.00 0.00 0.00 52 1017.0
20260502021304 56 33 0.0 0.0 0.00 0.00 0.00 53 1017.0
20260502020304 56 33 0.0 0.0 0.00 0.00 0.00 46 1016.9
20260502015804 57 33 0.0 0.0 0.00 0.00 0.00 48 1016.8
20260502014303 57 33 0.0 0.0 0.00 0.00 0.00 50 1016.8
20260502013303 57 33 0.0 0.0 0.00 0.00 0.00 49 1016.7
20260502012804 57 33 0.0 0.0 0.00 0.00 0.00 46 1016.5
20260502012306 57 33 0.0 0.0 0.00 0.00 0.00 47 1016.5
20260502011303 58 33 0.0 0.0 0.00 0.00 0.00 46 1016.4
20260502005306 59 33 0.0 0.0 0.00 0.00 0.00 47 1016.2
20260502004803 59 33 0.0 0.0 0.00 0.00 0.00 44 1016.0
20260502002804 60 33 0.0 0.0 0.00 0.00 0.00 43 1015.5
20260502002305 60 33 0.0 0.0 0.00 0.00 0.00 44 1015.5
20260502001303 61 33 0.0 0.0 0.00 0.00 0.00 42 1015.4
20260502000803 61 33 0.0 0.0 0.00 0.00 0.00 42 1015.2
20260502000304 61 33 0.0 0.0 0.00 0.00 0.00 42 1015.0
20260501235803 61 33 0.0 0.0 0.00 0.00 0.00 43 1014.9
20260501235305 61 33 0.0 0.0 0.00 0.00 0.00 42 1014.8
20260501234803 61 33 0.0 0.0 0.00 0.00 0.00 44 1014.7
20260501233803 62 33 0.0 0.0 0.00 0.00 0.00 41 1014.6
20260501233303 62 33 0.0 0.0 0.00 0.00 0.00 40 1014.6
20260501231803 63 33 0.0 0.0 0.00 0.00 0.00 43 1014.6
20260501230303 63 33 0.0 0.0 0.00 0.00 0.00 46 1014.6
20260501225803 63 33 0.0 0.0 0.00 0.00 0.00 43 1014.6
20260501224804 64 33 0.0 0.0 0.00 0.00 0.00 48 1014.3
20260501224303 64 33 0.0 3.0 0.00 0.00 0.00 46 1014.2
20260501221803 65 5 0.0 0.0 0.00 0.00 0.00 48 1013.8
20260501220803 66 5 0.0 0.0 0.00 0.00 0.00 51 1013.8
20260501215803 66 5 0.0 0.0 0.00 0.00 0.00 49 1013.9
20260501214803 66 5 0.0 0.0 0.00 0.00 0.00 47 1014.0
20260501214303 66 5 0.0 0.0 0.00 0.00 0.00 50 1014.0
20260501213803 66 5 0.0 0.0 0.00 0.00 0.00 49 1014.0
20260501211803 67 5 0.0 0.0 0.00 0.00 0.00 48 1014.2
20260501210803 67 5 0.0 0.0 0.00 0.00 0.00 43 1014.5
20260501205803 67 5 0.0 0.0 0.00 0.00 0.00 46 1014.6
20260501205306 67 5 0.0 0.0 0.00 0.00 0.00 45 1014.6
20260501202803 68 5 0.0 0.0 0.00 0.00 0.00 44 1014.6
20260501202306 68 5 0.0 0.0 0.00 0.00 0.00 48 1014.6
20260501201303 69 5 0.0 0.0 0.00 0.00 0.00 49 1014.9
20260501200804 69 5 0.0 0.0 0.00 0.00 0.00 49 1015.1
20260501200303 69 5 0.0 0.0 0.00 0.00 0.00 49 1015.3
20260501195306 69 5 0.0 0.0 0.00 0.00 0.00 48 1015.3
20260501194803 69 5 0.0 0.0 0.00 0.00 0.00 50 1015.4
20260501192306 69 15 0.0 0.0 0.00 0.00 0.00 54 1015.5
20260501185803 70 15 0.0 0.0 0.00 0.00 0.00 48 1015.5
20260501185306 70 15 0.0 0.0 0.00 0.00 0.00 47 1015.4
20260501184803 70 15 0.0 0.0 0.00 0.00 0.00 44 1015.3
20260501184303 70 15 0.0 0.0 0.00 0.00 0.00 47 1015.4
20260501183803 70 15 0.0 0.0 0.00 0.00 0.00 47 1015.3
20260501183303 69 15 0.0 0.0 0.00 0.00 0.00 47 1015.3
20260501182306 69 15 0.0 2.0 0.00 0.00 0.00 44 1015.2
20260501181803 69 29 0.0 1.0 0.00 0.00 0.00 45 1015.3
20260501180803 68 19 0.0 0.0 0.00 0.00 0.00 48 1015.4
20260501180303 68 19 0.0 0.0 0.00 0.00 0.00 46 1015.4
20260501175803 69 19 0.0 0.0 0.00 0.00 0.00 44 1015.4